www.pogodaiklimat.ru

Погода и климат >> Архив погоды >> Иран >> Ilam


ПОГОДА в Ilam

  • Прогноз погоды в Ilam
  • Монитор погоды в Ilam
  • Климат города

АРХИВ ПОГОДЫ в Ilam

Время (UTC), дата Ветер
(напр.,м/с)
 
Видим.   Явления Облачность Т
(С)
Тd
(С)
f
(%)
Тe
(С)
Тes
(С)
Комфортность P
(гПа)
Po
(гПа)
Тmin
(С)
Tmax
(С)
R
(мм)
R24
(мм)
S
(см)
18 15.11 В 2 10 км ясно +10.5 -4.3 35 +10 +10 1016.8 870.5
21 15.11 В 2 10 км ясно +8.4 -2.8 45 +7 +7 1016.1 870.5
00 16.11 В 2 10 км ясно +7.3 -2.4 50 +6 +6 1016.1 870.3
03 16.11 В 3 10 км ясно +6.3 -2.6 53 +4 +4 1017.9 870.4 +6.0
06 16.11 ЮВ 2 10 км 1/0
[Ci fib]
+14.2 -0.6 36 +14 +17 1018.3 871.4
09 16.11 Ю 3 10 км ясно +19.8 -0.6 25 +20 +27 1017.5 870.7
12 16.11 З 3 10 км 1/1 1350 м
[Cu hum]
+19.2 -0.7 26 +19 +21 1016.0 869.8
15 16.11 СЗ 1 10 км ясно +13.0 -0.6 39 +14 +14 1018.8 870.6 +20.4
18 16.11 В 1 10 км ясно +9.0 -0.9 50 +9 +9 1018.5 871.2
21 16.11 В 3 10 км ясно +7.6 -1.4 53 +5 +5 1017.5 870.7
00 17.11 В 2 10 км ясно +6.3 -1.8 56 +4 +4 1017.3 870.7
03 17.11 В 3 10 км ясно +6.1 -2.0 56 +3 +3 1019.4 871.0 +5.8
06 17.11 ЮВ 2 10 км ясно +14.4 -0.1 37 +14 +17 1020.0 872.5
09 17.11 Ю 2 10 км ясно +20.2 -2.2 22 +21 +28 комфорт 1017.6 871.5
12 17.11 ЮЗ 4 10 км ясно +19.0 -0.9 26 +19 +21 1017.6 870.9
15 17.11 З 2 10 км ясно +13.3 -1.4 36 +13 +13 1020.2 871.8 +20.6
18 17.11 В 2 10 км ясно +8.9 -1.8 47 +8 +8 1020.4 872.9
21 17.11 ЮВ 1 10 км ясно +7.8 -2.0 50 +8 +8 1019.7 872.7
00 18.11 В 2 10 км ясно +5.7 -2.9 54 +4 +4 1019.8 872.7
03 18.11 В 3 10 км ясно +4.9 -3.1 56 +2 +2 1022.3 872.9 +4.7
06 18.11 ЮВ 2 10 км ясно +13.4 -1.0 37 +13 +16 1022.3 874.3
09 18.11 ЮВ 2 10 км ясно +19.4 -4.8 19 +20 +27 1020.5 873.8
12 18.11 З 3 10 км 4/0
[Ci fib]
+18.9 -2.7 23 +19 +21 1019.8 872.6
15 18.11 СВ 1 10 км 5/0
[Ci fib]
+11.6 -1.2 41 +12 +12 1022.4 873.0 +20.8
18 18.11 В 2 10 км 5/0
[Ci fib]
+8.6 -2.4 46 +7 +7 1022.0 873.9
21 18.11 В 2 10 км 5/0
[Ci fib]
+7.4 -4.7 42 +6 +6 1020.3 873.5
00 19.11 В 3 10 км 4/0
[Ci fib]
+7.9 -4.9 40 +6 +6 1019.3 872.7
03 19.11 В 3 10 км 9/3 1200 м
[Sc Ac As]
+8.8 -5.1 37 +7 +7 1021.0 872.5 +5.7
06 19.11 ЮВ 2 9000 м мгла 10/1 1350 м
[Sc As op]
+13.9 -2.9 31 +14 +14 1021.5 873.6
09 19.11 ЮВ 4 10 км 9/1 1350 м
[Sc Ac As]
+17.2 -3.0 25 +17 +19 1020.5 873.1
12 19.11 ЮВ 4 10 км 8/0
[Ac As Ci sp]
+17.3 -2.4 26 +17 +18 1019.1 872.2
15 19.11 В 3 10 км 6/0
[Ac As Ci sp]
+12.1 -0.4 42 +11 +11 1020.5 872.4 +18.5
18 19.11 В 3 10 км 5/0
[Ac trans]
+11.2 -0.9 43 +10 +10 1019.8 872.6
21 19.11 ЮВ 3 10 км 8/4 1200 м
[Sc Ac As]
+11.8 +0.3 45 +11 +11 1018.2 872.4
00 20.11 ЮВ 2 10 км 6/3 1200 м
[Sc Ac As]
+10.1 +0.2 50 +9 +9 1018.2 872.0
03 20.11 ЮВ 4 10 км 5/3 1200 м
[Sc Ac As]
+10.3 +0.1 49 +8 +8 1019.4 871.9 +8.3
06 20.11 ЮВ 3 10 км 6/4 1200 м
[Cb calv Ac As]
+15.8 +0.4 35 +15 +17 1020.6 872.9
09 20.11 ЮВ 4 9000 м слабый дождь 10/5 1050 м
[Cb calv As op]
+16.5 +2.1 38 +16 +17 1018.7 871.6
12 20.11 ЮВ 5 10 км 10/5 1050 м
[Cb calv As op]
+16.4 +2.4 39 +16 +16 1017.7 870.3 0.0
15 20.11 ЮВ 4 10 км 10/5 1050 м
[Cb calv As op]
+15.1 +2.6 43 +14 +14 1017.8 870.1 +18.3
18 20.11 Ю 3 10 км 10/5 1050 м
[Cb calv As op]
+14.8 +2.0 42 +14 +14 1016.1 869.9
21 20.11 Ю 3 10 км 10/5 1050 м
[Cb calv As op]
+14.8 +2.0 42 +14 +14 1016.1 869.8
00 21.11 ЮЗ 1 9000 м слабый дождь 10/6 1050 м
[Cb calv As op]
+11.4 +6.5 72 +11 +11 1016.2 869.5 0.6
03 21.11 ЮВ 2 8000 м слабый дождь {гроза} 10/8 900 м
[Cb cap As op]
+9.6 +8.4 92 +8 +8 1016.2 868.8 +9.5
06 21.11 ЮВ 2 3000 м дождь {гроза} 10/9 600 м
[Cb calv As op]
+9.7 +8.8 94 +8 +8 1016.8 869.3 7
09 21.11 ЮВ 3 5000 м слабый дождь {гроза} 10/8 600 м
[Cb calv As op]
+10.6 +8.4 86 +9 +9 1014.3 867.4
12 21.11 ЮВ 2 4000 м слабый дождь 10/9 600 м
[Cb calv As op]
+10.5 +8.9 90 +9 +9 1012.9 865.4 9
15 21.11 ЮВ 4 8000 м слабый дождь {гроза} 10/8 600 м
[Cb calv As op]
+8.9 +7.2 89 +6 +6 1014.2 865.6 +12.1
18 21.11 В 1 9000 м слабый дождь {гроза} 10/8 600 м
[Cb calv As op]
+8.2 +7.3 94 +7 +7 1014.7 865.9 15
21 21.11 ЮВ 2 8000 м в посл. час гроза 9/8 900 м
[Cb calv Ac As]
+8.5 +7.9 96 +6 +6 1013.8 865.5
06 22.11 ЮВ 2 8000 м в посл. час дождь 9/5 900 м
[Cb calv Ac As]
+10.5 +9.1 91 +9 +10 1012.9 864.6 17
09 22.11 ЮВ 2 7000 м слабый дождь 9/6 900 м
[Cb calv Ac As]
+11.7 +8.7 82 +11 +12 1012.7 864.8
12 22.11 Ю 3 8000 м мгла {дождь} 8/5 1050 м
[Cb calv Ac As]
+11.3 +7.2 76 +10 +10 1012.3 864.3 0.2
15 22.11 ЮВ 2 9000 м гроза, ливневой дождь 9/6 900 м
[Cb cap Ac As]
+9.7 +6.8 82 +8 +8 1012.5 864.3 +12.4

 

Местоположение метеостанции Ilam (Иран): широта 33.63 долгота 46.43 высота над уровнем моря 1337 м.

В архиве по умолчанию представлена погода в Ilam за последнюю неделю. Архивные данные за месяц целиком и за предыдущие месяцы, начиная с января 2011 года, Вы можете получить, выбрав интересующий диапазон дат из раскрывающегося списка и нажав кнопку "Ввод!".

Внимание! Время в таблицах - всемирное. Для получения местного времени необходимо прибавить поправку, которая в Ilam равна 3.5 ч.

Смотрите также архив погоды в соседних городах и на ближайших метеорологических станциях:

Погода в Badrah (Ирак) (74 км)
Погода в Kermanshah (Иран) (95 км)
Погода в Khanaqin (Ирак) (119 км)
Погода в Ali Al-Gharbi (Ирак) (132 км)
Погода в Ubaydah Bin Al Jarrah (Ирак) (142 км)
Погода в Azizyah (Ирак) (149 км)
Погода в Ayn Al-Tamar (Ирак) (159 км)
Погода в Kut-Al-Hai (Ирак) (166 км)
Погода в Al-Khalis (Ирак) (177 км)
Погода в Halabcha (Ирак) (180 км)

Пояснения к столбцам:

Ветер - указаны скорость ветра в м/с - средняя за 10 мин, порывы в срок и между сроками (в фигурных скобках) и направление, откуда дует ветер: С - северный, СВ - северо-восточный, В - восточный, ЮВ - юго-восточный, Ю - южный, ЮЗ - юго-западный, З - западный, СЗ - северо-западный.
Видимость - горизонтальная дальность видимости в метрах или километрах. При видимости от 1 до 10 км при отсутствии осадков обычно наблюдается дымка, при ухудшении видимости до 1 км и менее - туман. В сухую погоду видимость может ухудшаться дымом, пылью или мглою.
Явления - указаны атмосферные явления, наблюдавшиеся в срок или в последний час перед сроком; фигурными скобками обозначены явления, наблюдавшиеся между сроками (за 1-3 часа до срока); квадратными скобками обозначены град или гололедные отложения с указанием их диаметра в мм.
Облачность - указаны через наклонную черту общая и нижняя облачность в баллах и высота нижней границы облаков в метрах; квадратными скобками обозначены формы облаков: Ci - перистые, Cs - перисто-слоистые, Cc - перисто-кучевые, Ac - высококучевые, As - высокослоистые, Sc - слоисто-кучевые, Ns - слоисто-дождевые, Cu - кучевые, Cb - кучево-дождевые. Подробнее классификацию облаков см. в Атласе облаков (PDF).
T - Температура воздуха - температура, измеренная на высоте 2 м над землей.
Td - Температура точки росы - температура, при понижении до которой содержащийся в воздухе водяной пар достигнет насыщения.
f - Относительная влажность воздуха - влажноcть воздуха, измеренная на высоте 2 м над землей.
Te - Эффективная температура - температура, которую ощущает одетый по сезону человек в тени. Характеристика душности погоды. При расчете учитывается влияние влажности воздуха и скорости ветра на теплоощущения человека.
Tes - Эффективная температура на солнце - температура, которую ощущает человек, с поправкой на солнечный нагрев. Характеристика знойности погоды. Зависит от высоты солнца над горизонтом, облачности и скорости ветра. Ночью, в пасмурную погоду, а также при ветре 12 м/с и более поправка равна нулю.
P - Атмосферное давление - приведенное к уровню моря атмосферное давление.
Po - Атмосферное давление - измеренное на уровне метеостанции атмосферное давление.
Tmin - Минимальная температура - минимум температуры воздуха на высоте 2 м над землей.
Tmax - Максимальная температура - максимум температуры воздуха на высоте 2 м над землей.
R - Количество осадков - Количество выпавших осадков за период времени, мм. При наведении курсора мыши на число - период времени, за который выпало указанное количество осадков.
R24 - Количество осадков - Количество выпавших осадков за 24 часа, мм.
S - Снежный покров - Высота снежного покрова, см. При наведении курсора мыши на число - состояние снежного покрова и степень покрытия местности в баллах.